Medicine Lodge, KS

7:32 AM CST on December 09, 2019 (GMT -0600)
Medicine Lodge

Weather History for KP28 - October, 2019

Change the Weather History Date:

Wednesday, October 9, 2019

  Actual Average Record
Temperature  
Mean Temperature 68 °F 62 °F  
Max Temperature 81 °F 74 °F 100 °F (1921)
Min Temperature 55 °F 49 °F 31 °F (1952)
Degree Days  
Heating Degree Days 0 6  
Month to date heating degree days 38 41  
Since 1 July heating degree days 38 75  
Cooling Degree Days 3 2  
Month to date cooling degree days 23 23  
Year to date cooling degree days 1837 1754  
Growing Degree Days 18 (Base 50)    
Moisture  
Dew Point 56 °F    
Average Humidity 69    
Maximum Humidity 86    
Minimum Humidity 51    
Precipitation  
Precipitation 0.15 in 0.09 in 2.32 in (2003)
Month to date precipitation 1.76 0.78  
Year to date precipitation 30.34 23.23  
Snow  
Snow 0.00 in 0.00 in - ()
Month to date snowfall 0.0 0.0  
Since 1 July snowfall 0.0 0.0  
Since 1 September snowfall 0.0 0.0  
Snow Depth 0.00 in    
Sea Level Pressure  
Sea Level Pressure 29.72 in    
Wind  
Wind Speed 13 mph (SE)    
Max Wind Speed 23 mph    
Max Gust Speed 35 mph    
T = Trace of Precipitation, MM = Missing Value Source: NWS Daily Summary

Daily Weather History Graph

Daily Weather History Graph

Search for Another Location

Airport or City:

Astronomy

Oct. 09, 2019 Rise Set
Actual Time 7:36 AM CDT 7:05 PM CDT
Civil Twilight 7:10 AM CDT 7:32 PM CDT
Nautical Twilight 6:40 AM CDT 8:02 PM CDT
Astronomical Twilight 6:10 AM CDT 8:32 PM CDT
Moon 5:32 PM CDT 3:31 AM CDT
Length of Visible Light 12h 21m
Length of Day
11h 29m
Waxing Gibbous, 85% of the Moon is Illuminated
Oct 9
Waxing Gibbous
Oct 13
Full
Oct 21
Last Quarter
Oct 27
New
Nov 4
First Quarter

Hourly Weather History & Observations

Time (CDT) Temp. Heat Index Dew Point Humidity Pressure Visibility Wind Dir Wind Speed Gust Speed Precip Events Conditions
12:56 AM 61.0 °F - 46.0 °F 58% 29.86 in - SE 10.4 mph 21.9 mph N/A   Unknown
1:56 AM 57.9 °F - 46.9 °F 67% 29.84 in - SE 9.2 mph 16.1 mph N/A   Unknown
2:56 AM 57.9 °F - 48.0 °F 70% 29.81 in - SE 9.2 mph - N/A   Unknown
3:56 AM 57.0 °F - 48.0 °F 72% 29.81 in - SE 10.4 mph - N/A   Unknown
4:56 AM 55.9 °F - 48.9 °F 77% 29.83 in - East 3.5 mph - N/A   Unknown
5:56 AM 55.9 °F - 51.1 °F 84% 29.81 in - East 10.4 mph 19.6 mph 0.15 in   Unknown
6:56 AM 55.9 °F - 51.1 °F 84% 29.77 in - ESE 13.8 mph 26.5 mph N/A   Unknown
7:56 AM 55.0 °F - 52.0 °F 89% 29.78 in - SE 11.5 mph - N/A   Unknown
8:56 AM 57.0 °F - 53.1 °F 87% 29.78 in - SE 17.3 mph 29.9 mph N/A   Unknown
9:56 AM 61.0 °F - 55.0 °F 81% 29.78 in - SE 13.8 mph 27.6 mph N/A   Unknown
10:56 AM 64.0 °F - 55.9 °F 75% 29.76 in - SSE 15.0 mph 32.2 mph N/A   Unknown
11:56 AM 66.9 °F - 55.9 °F 68% 29.74 in - SSE 17.3 mph 32.2 mph N/A   Unknown
12:56 PM 73.0 °F - 57.0 °F 57% 29.69 in - SSE 17.3 mph 29.9 mph N/A   Unknown
1:56 PM 75.9 °F - 57.9 °F 54% 29.65 in - South 19.6 mph 31.1 mph N/A   Unknown
2:56 PM 79.0 °F - 59.0 °F 50% 29.61 in - South 21.9 mph 29.9 mph N/A   Unknown
3:56 PM 80.1 °F 80.9 °F 60.1 °F 50% 29.60 in - South 17.3 mph 31.1 mph N/A   Unknown
4:56 PM 81.0 °F 81.6 °F 60.1 °F 49% 29.60 in - SSE 12.7 mph 28.8 mph N/A   Unknown
5:56 PM 80.1 °F 81.1 °F 61.0 °F 52% 29.60 in - SSE 13.8 mph 25.3 mph N/A   Unknown
7:56 PM 73.9 °F - 63.0 °F 68% 29.63 in - SSE 10.4 mph 25.3 mph N/A   Unknown
8:56 PM 73.0 °F - 64.0 °F 73% 29.64 in - SE 11.5 mph 23.0 mph N/A   Unknown
10:56 PM 70.0 °F - 64.9 °F 84% 29.65 in - SSE 11.5 mph 24.2 mph N/A   Unknown
11:56 PM 70.0 °F - 64.9 °F 84% 29.65 in - SE 10.4 mph 23.0 mph N/A   Unknown